• Join FlightAware (Why Join?)
  • Login
  • US Flag 
03:52AM EDT


 

Airport Tracker/Info


-or-


 

Live Flight TrackerFlight Track Log ✈ AAL1870 ✈ 25-Apr-2013 ✈ KLAX - KORD

Flight Track Log - Related Links

Times and Time Zones

All times are in EDT time to prevent confusion due to time zone crossing. See the AAL1870 flight status page for this flight to view local times or setup timezone preferences in your user account.

Time Position Orientation Groundspeed Altitude Reporting Facility
EDT Latitude Longitude Course Direction KTS MPH feet Rate Location/Type
08:55PM 33.9336 -118.4450 90° East 173 199 1,600  Level Los Angeles Center
08:56PM 33.8461 -118.6575 189° South  Level FlightAware Approximate
08:56PM 33.8892 -118.5069 229° Southwest 238 274 2,900  Level Los Angeles Center
08:57PM 33.7390 -118.5863 134° Southeast  Level FlightAware Approximate
08:57PM 33.8072 -118.5139 184° South 275 316 5,300  Level Los Angeles Center
08:58PM 33.6722 -118.4497 101° East  Level FlightAware Approximate
08:58PM 33.7289 -118.5192 183° South 286 329 8,000  Level Los Angeles Center
08:59PM 33.6334 -118.2967 90° East  Level FlightAware Approximate
08:59PM 33.6775 -118.4539 133° Southeast 299 344 10,300  Level Los Angeles Center
09:00PM 33.6333 -118.1320 90° East  Level FlightAware Approximate
09:00PM 33.6439 -118.3314 108° East 329 379 12,700  Level Los Angeles Center
09:01PM 33.6450 -118.2161 89° East 354 407 15,100 2,400 Climbing Los Angeles Center
09:02PM 33.6447 -118.0942 90° East 369 425 17,700 2,280 Climbing Los Angeles Center
09:03PM 33.6447 -117.9644 90° East 389 448 19,800 2,040 Climbing Los Angeles Center
09:04PM 33.6439 -117.8286 90° East 408 470 22,000 2,160 Climbing Los Angeles Center
09:05PM 33.6433 -117.6581 90° East 428 493 24,300 1,980 Climbing Los Angeles Center
09:06PM 33.6425 -117.5111 90° East 441 507 26,100 1,800 Climbing Los Angeles Center
09:07PM 33.6422 -117.3608 90° East 450 518 28,100 1,380 Climbing Los Angeles Center
09:08PM 33.6417 -117.2081 90° East 458 527 29,000 660 Climbing Los Angeles Center
09:09PM 33.6389 -117.0436 91° East 490 564 29,500 960 Climbing Los Angeles Center
09:10PM 33.6375 -116.8750 91° East 507 583 31,100 1,500 Climbing Los Angeles Center
09:11PM 33.6356 -116.6833 91° East 503 579 32,600 1,320 Climbing Los Angeles Center
09:12PM 33.6575 -116.4836 82° East 507 583 34,100 960 Climbing Los Angeles Center
09:14PM 33.6981 -116.3203 73° East 509 586 34,900 420 Climbing Los Angeles Center
09:15PM 33.7378 -116.1572 74° East 509 586 35,000  Climbing Los Angeles Center
09:16PM 33.7789 -115.9936 73° East 510 587 34,900 -60 Descending Los Angeles Center
09:17PM 33.8278 -115.8000 73° East 504 580 34,900  Level Los Angeles Center
09:18PM 33.8672 -115.6389 74° East 503 579 35,000  Climbing Los Angeles Center
09:19PM 33.9069 -115.4781 73° East 502 578 34,900  Descending Los Angeles Center
09:20PM 33.9469 -115.3178 73° East 501 577 35,000 600 Climbing Los Angeles Center
09:21PM 33.9864 -115.1561 74° East 502 578 36,200 900 Climbing Los Angeles Center
09:22PM 34.0253 -114.9972 74° East 497 572 36,900 360 Climbing Los Angeles Center
09:23PM 34.0647 -114.8372 73° East 500 575 37,000  Climbing Los Angeles Center
09:24PM 34.1117 -114.6461 73° East 498 573 36,900  Descending Los Angeles Center
09:25PM 34.1567 -114.4892 71° East 498 573 37,000  Climbing Los Angeles Center
09:26PM 34.1986 -114.3336 72° East 497 572 37,000  Level Albuquerque Center
09:27PM 34.2453 -114.1711 71° East 504 580 37,000  Level Albuquerque Center
09:28PM 34.2892 -114.0156 71° East 495 570 37,000  Level Albuquerque Center
09:29PM 34.3411 -113.8258 72° East 497 572 37,000  Level Albuquerque Center
09:30PM 34.3853 -113.6667 71° East 499 574 37,000  Level Albuquerque Center
09:31PM 34.4275 -113.5072 72° East 499 574 37,000  Level Albuquerque Center
09:32PM 34.4661 -113.3686 71° East 501 577 37,000  Level Albuquerque Center
09:33PM 34.5183 -113.1756 72° East 505 581 37,000  Level Albuquerque Center
09:34PM 34.5606 -113.0136 72° East 508 585 37,000  Level Albuquerque Center
09:35PM 34.6044 -112.8525 72° East 508 585 37,000  Level Albuquerque Center
09:36PM 34.6467 -112.6917 72° East 508 585 37,000  Level Albuquerque Center
09:37PM 34.6889 -112.5303 72° East 508 585 37,000  Level Albuquerque Center
09:38PM 34.7328 -112.3511 73° East 504 580 37,000  Level Albuquerque Center
09:39PM 34.7711 -112.1767 75° East 500 575 37,000  Level Albuquerque Center
09:40PM 34.8083 -112.0131 74° East 503 579 37,000  Level Albuquerque Center
09:41PM 34.8453 -111.8519 74° East 502 578 37,000  Level Albuquerque Center
09:42PM 34.8806 -111.6925 75° East 506 582 37,000  Level Albuquerque Center
09:43PM 34.9178 -111.5278 75° East 505 581 37,000  Level Albuquerque Center
09:44PM 34.9622 -111.3272 75° East 508 585 37,000  Level Albuquerque Center
09:45PM 34.9992 -111.1597 75° East 510 587 37,000  Level Albuquerque Center
09:46PM 35.0358 -110.9928 75° East 510 587 37,000  Level Albuquerque Center
09:47PM 35.0728 -110.8194 75° East 509 586 37,000  Level Albuquerque Center
09:48PM 35.1081 -110.6589 75° East 510 587 37,000  Level Albuquerque Center
09:49PM 35.1458 -110.4722 76° East 509 586 37,000  Level Albuquerque Center
09:51PM 35.1803 -110.3131 75° East 508 585 37,000  Level Albuquerque Center
09:52PM 35.2156 -110.1533 75° East 508 585 37,000  Level Albuquerque Center
09:53PM 35.2536 -109.9658 76° East 509 586 37,000  Level Albuquerque Center
09:54PM 35.2875 -109.8056 75° East 509 586 37,000  Level Albuquerque Center
09:55PM 35.3264 -109.6172 76° East 512 589 37,000  Level Albuquerque Center
09:56PM 35.3586 -109.4544 76° East 514 592 37,000  Level Albuquerque Center
09:57PM 35.3972 -109.2653 76° East 514 592 37,000  Level Albuquerque Center
09:58PM 35.4306 -109.1017 76° East 517 595 37,000  Level Albuquerque Center
09:59PM 35.4628 -108.9397 76° East 515 593 37,000  Level Albuquerque Center
10:00PM 35.5075 -108.7531 74° East 513 590 37,000  Level Albuquerque Center
10:01PM 35.5517 -108.5961 71° East 512 589 37,000  Level Albuquerque Center
10:02PM 35.6028 -108.4114 71° East 513 590 37,000  Level Albuquerque Center
10:03PM 35.6450 -108.2528 72° East 513 590 37,000  Level Albuquerque Center
10:04PM 35.6939 -108.0683 72° East 512 589 37,000  Level Albuquerque Center
10:05PM 35.7358 -107.9086 72° East 512 589 37,000  Level Albuquerque Center
10:06PM 35.7789 -107.7464 72° East 518 596 37,000  Level Albuquerque Center
10:07PM 35.8272 -107.5581 72° East 519 597 37,000  Level Albuquerque Center
10:08PM 35.8697 -107.3956 72° East 519 597 37,000  Level Albuquerque Center
10:09PM 35.9194 -107.2056 72° East 521 600 37,000  Level Albuquerque Center
10:10PM 35.9544 -107.0700 72° East 521 600 37,000  Level Albuquerque Center
10:11PM 36.0058 -106.8669 73° East 517 595 37,000  Level Albuquerque Center
10:12PM 36.0500 -106.6969 72° East 516 594 37,000  Level Albuquerque Center
10:13PM 36.0922 -106.5300 73° East 512 589 37,000  Level Albuquerque Center
10:14PM 36.1344 -106.3608 73° East 512 589 37,000  Level Albuquerque Center
10:15PM 36.1767 -106.1922 73° East 512 589 37,000  Level Albuquerque Center
10:16PM 36.2192 -106.0236 73° East 512 589 37,000  Level Albuquerque Center
10:17PM 36.2597 -105.8536 73° East 513 590 37,000  Level Albuquerque Center
10:18PM 36.2994 -105.6806 74° East 519 597 37,000  Level Albuquerque Center
10:19PM 36.3458 -105.4903 73° East 512 589 37,000  Level Albuquerque Center
10:20PM 36.3864 -105.3194 74° East 511 588 37,000  Level Albuquerque Center
10:21PM 36.4269 -105.1489 73° East 509 586 37,000  Level Albuquerque Center
10:22PM 36.4664 -104.9783 74° East 510 587 37,000  Level Albuquerque Center
10:23PM 36.5139 -104.8106 71° East 508 585 37,000  Level Albuquerque Center
10:24PM 36.5739 -104.6469 65° Northeast 514 592 37,000  Level Albuquerque Center
10:25PM 36.6336 -104.4836 65° Northeast 514 592 37,000  Level Albuquerque Center
10:26PM 36.6908 -104.3256 66° East 513 590 37,000  Level Albuquerque Center
10:27PM 36.7561 -104.1461 66° East 512 589 37,000  Level Albuquerque Center
10:28PM 36.8111 -103.9925 66° East 509 586 37,000  Level Albuquerque Center
10:29PM 36.8753 -103.8144 66° East 507 583 37,000  Level Albuquerque Center
10:30PM 36.9306 -103.6600 66° East 510 587 37,000  Level Albuquerque Center
10:31PM 36.9853 -103.5025 66° East 515 593 37,000  Level Albuquerque Center
10:32PM 37.0497 -103.3192 66° East 517 595 37,000  Level Albuquerque Center
10:33PM 37.1047 -103.1631 66° East 515 593 37,000  Level Albuquerque Center
10:34PM 37.1689 -102.9786 66° East 519 597 37,000  Level Albuquerque Center
10:35PM 37.2247 -102.8203 66° East 519 597 37,000  Level Albuquerque Center
10:37PM 37.2858 -102.6356 67° East 514 592 37,000  Level Albuquerque Center
10:38PM 37.3403 -102.4786 66° East 513 590 37,000  Level Albuquerque Center
10:39PM 37.3936 -102.3200 67° East 513 590 37,000  Level Albuquerque Center
10:40PM 37.4531 -102.1439 67° East 513 590 37,000  Level Albuquerque Center
10:41PM 37.5056 -101.9858 67° East 512 589 37,000  Level Albuquerque Center
10:42PM 37.5769 -101.7731 67° East 515 593 37,000  Level Kansas City Center
10:43PM 37.6294 -101.6133 67° East 516 594 37,000  Level Kansas City Center
10:45PM 37.7436 -101.2650 67° East 516 594 37,000  Level Kansas City Center
10:46PM 37.7975 -101.1036 67° East 516 594 37,000  Level Kansas City Center
10:47PM 37.8500 -100.9397 68° East 517 595 37,000  Level Kansas City Center
10:48PM 37.9131 -100.7472 67° East 522 601 37,000  Level Kansas City Center
10:49PM 37.9672 -100.5822 67° East 525 604 37,000  Level Kansas City Center
10:50PM 38.0231 -100.4206 66° East 523 602 37,000  Level Kansas City Center
10:51PM 38.0867 -100.2303 67° East 524 603 37,000  Level Kansas City Center
10:52PM 38.1417 -100.0669 67° East 525 604 37,000  Level Kansas City Center
10:53PM 38.1969 -99.9011 67° East 529 609 37,000  Level Kansas City Center
10:54PM 38.2569 -99.7067 68° East 529 609 37,000  Level Kansas City Center
10:55PM 38.3064 -99.5372 70° East 532 612 37,000  Level Kansas City Center
10:56PM 38.3592 -99.3589 69° East 534 615 37,000  Level Kansas City Center
10:57PM 38.4119 -99.1825 69° East 533 613 37,000  Level Kansas City Center
10:58PM 38.4644 -99.0050 69° East 533 613 37,000  Level Kansas City Center
10:59PM 38.5169 -98.8264 69° East 535 616 37,000  Level Kansas City Center
11:00PM 38.5708 -98.6464 69° East 538 619 37,000  Level Kansas City Center
11:01PM 38.6225 -98.4664 70° East 538 619 37,000  Level Kansas City Center
11:02PM 38.6747 -98.2853 70° East 540 621 37,000  Level Kansas City Center
11:03PM 38.7261 -98.1044 70° East 539 620 37,000  Level Kansas City Center
11:04PM 38.7792 -97.9225 69° East 541 623 37,000  Level Kansas City Center
11:05PM 38.8394 -97.7075 70° East 541 623 37,000  Level Kansas City Center
11:06PM 38.8875 -97.5333 70° East 540 621 37,000  Level Kansas City Center
11:07PM 38.9411 -97.3397 70° East 539 620 37,000  Level Kansas City Center
11:08PM 38.9911 -97.1592 70° East 535 616 37,000  Level Kansas City Center
11:09PM 39.0381 -96.9872 71° East 533 613 37,000  Level Kansas City Center
11:10PM 39.0944 -96.7850 70° East 536 617 37,000  Level Kansas City Center
11:11PM 39.1403 -96.6108 71° East 537 618 37,000  Level Kansas City Center
11:12PM 39.1858 -96.4364 71° East 536 617 37,000  Level Kansas City Center
11:13PM 39.2400 -96.2319 71° East 538 619 37,000  Level Kansas City Center
11:14PM 39.2864 -96.0561 71° East 540 621 37,000  Level Kansas City Center
11:15PM 39.3328 -95.8800 71° East 539 620 37,000  Level Kansas City Center
11:16PM 39.3861 -95.6733 71° East 540 621 37,000  Level Kansas City Center
11:17PM 39.4328 -95.4953 71° East 540 621 37,000  Level Kansas City Center
11:18PM 39.4831 -95.2969 72° East 540 621 37,000  Level Kansas City Center
11:20PM 39.5314 -95.1069 72° East 540 621 37,000  Level Kansas City Center
11:21PM 39.5764 -94.9286 72° East 541 623 37,000  Level Kansas City Center
11:22PM 39.6219 -94.7492 72° East 545 627 37,000  Level Kansas City Center
11:23PM 39.6728 -94.5403 72° East 543 625 37,000  Level Kansas City Center
11:24PM 39.7178 -94.3611 72° East 545 627 37,000  Level Kansas City Center
11:25PM 39.7611 -94.1828 72° East 541 623 37,000  Level Kansas City Center
11:26PM 39.8106 -93.9783 72° East 541 623 37,000  Level Kansas City Center
11:27PM 39.8522 -93.7900 74° East 542 624 37,000  Level Kansas City Center
11:28PM 39.8967 -93.6064 72° East 538 619 37,000  Level Kansas City Center
11:29PM 39.9414 -93.4256 72° East 534 615 37,000 -420 Level Kansas City Center
11:30PM 39.9839 -93.2428 73° East 534 615 36,200 -840 Descending Kansas City Center
11:31PM 40.0272 -93.0597 73° East 534 615 35,300 -600 Descending Kansas City Center
11:32PM 40.0756 -92.8481 73° East 538 619 35,000 -180 Descending Kansas City Center
11:33PM 40.1156 -92.6683 74° East 538 619 35,000  Level Kansas City Center
11:34PM 40.1803 -92.4686 67° East 531 611 35,000  Level Kansas City Center
11:35PM 40.2367 -92.3133 65° Northeast 527 606 35,000  Level Kansas City Center
11:36PM 40.2981 -92.1394 65° Northeast 534 615 35,000  Level Kansas City Center
11:37PM 40.3717 -91.9308 65° Northeast 533 613 35,000  Level Kansas City Center
11:38PM 40.4328 -91.7581 65° Northeast 529 609 35,000  Level Kansas City Center
11:39PM 40.4928 -91.5833 66° East 529 609 35,000  Level Kansas City Center
11:39PM 40.5264 -91.4781 67° East 529 609 35,000  Level Chicago Center
11:40PM 40.5900 -91.2947 65° Northeast 531 611 35,000 -120 Level Chicago Center
11:42PM 40.7114 -90.9428 65° Northeast 526 605 34,800 -240 Descending Chicago Center
11:44PM 40.7706 -90.7678 66° East 523 602 34,300 -420 Descending Chicago Center
11:45PM 40.8294 -90.5917 66° East 523 602 34,000 -900 Descending Chicago Center
11:46PM 40.8881 -90.4172 66° East 519 597 32,500 -1,800 Descending Chicago Center
11:47PM 40.9522 -90.2278 66° East 516 594 30,400 -1,740 Descending Chicago Center
11:48PM 41.0028 -90.0706 67° East 509 586 29,000 -1,080 Descending Chicago Center
11:49PM 41.0594 -89.9000 66° East 502 578 28,300 -1,500 Descending Chicago Center
11:50PM 41.1150 -89.7294 67° East 500 575 26,000 -1,200 Descending Chicago Center
11:51PM 41.1692 -89.5636 66° East 490 564 25,900 -1,440 Descending Chicago Center
11:52PM 41.2303 -89.4139 61° Northeast 467 537 23,100 -2,880 Descending Chicago Center
11:53PM 41.2892 -89.2700 61° Northeast 447 514 20,200 -2,640 Descending Chicago Center
11:54PM 41.3419 -89.1339 63° Northeast 410 472 17,800 -2,700 Descending Chicago Center
11:55PM 41.3942 -89.0025 62° Northeast 405 466 14,800 -2,760 Descending Chicago Center
11:56PM 41.4433 -88.8789 62° Northeast 386 444 12,200 -1,920 Descending Chicago Center
11:57PM 41.5003 -88.7378 62° Northeast 367 422 11,000 -600 Descending Chicago Center
11:58PM 41.5453 -88.6217 63° Northeast 356 410 11,000  Level Chicago Center
11:59PM 41.5908 -88.5078 62° Northeast 351 404 11,000  Level Chicago Center
12:00AM 41.6458 -88.4008 55° Northeast 349 402 11,100  Climbing Chicago Center
12:01AM 41.7061 -88.2994 51° Northeast 347 399 11,000 -60 Descending Chicago Center
12:02AM 41.7664 -88.1981 51° Northeast 347 399 11,000  Level Chicago Center
12:03AM 41.8253 -88.0956 52° Northeast 347 399 11,000 -480 Level Chicago Center
12:04AM 41.8833 -88.0000 51° Northeast 287 330 10,100 -1,200 Descending Chicago TRACON
12:05AM 41.8833 -87.9000 90° East 312 359 8,700 -1,380 Descending Chicago TRACON
12:06AM 41.8833 -87.7833 90° East 292 336 7,400 -1,440 Descending Chicago TRACON
12:07AM 41.8833 -87.6667 90° East 285 328 5,800 -1,200 Descending Chicago TRACON
12:08AM 41.9167 -87.6000 56° Northeast 271 312 5,100 -780 Descending Chicago TRACON
12:09AM 41.9667 -87.6333 334° Northwest 209 241 4,300 -660 Descending Chicago TRACON
12:10AM 41.9667 -87.7000 270° West 203 234 3,900 -480 Descending Chicago TRACON